When you browse on this site, cookies collect data to enhance your experience and personalize the content and advertising you see.
Visit our Privacy Policy to learn more. By continuing to use the site, you agree to this use of cookies and data.
  • In Schweiz
  • Länderverzeichnis
  • Für 7 Tage
  • Wassertemperatur
  • Satellitenkarten
  • Wetterkarte
  • Widgets
  • user-avatar
    Anmelden

    Stündliche Wetter Mombasa

    Heute, 20 Januar, Sonntag

    Zeit Temperatur Niederschläge Wind Luftdruck Luftfeuchtigkeit
    00:00 +28°C° 0 mm 5 m/S 758 mmHg 87%
    01:00 +27°C° 0 mm 4 m/S 758 mmHg 88%
    02:00 +27°C° 0 mm 4 m/S 758 mmHg 90%
    03:00 +27°C° 0 mm 4 m/S 758 mmHg 91%
    04:00 +26°C° 0 mm 4 m/S 758 mmHg 92%
    05:00 +26°C° 0 mm 3 m/S 758 mmHg 93%
    06:00 +26°C° 0 mm 3 m/S 758 mmHg 94%
    07:00 +27°C° 0 mm 3 m/S 759 mmHg 87%
    08:00 +29°C° 0 mm 3 m/S 759 mmHg 79%
    09:00 +30°C° 0 mm 4 m/S 759 mmHg 72%
    10:00 +33°C° 0 mm 4 m/S 759 mmHg 64%
    11:00 +34°C° 0 mm 4 m/S 759 mmHg 56%
    12:00 +36°C° 0 mm 5 m/S 758 mmHg 49%
    13:00 +36°C° 0 mm 5 m/S 758 mmHg 48%
    14:00 +36°C° 0 mm 6 m/S 757 mmHg 48%
    15:00 +38°C° 0 mm 6 m/S 756 mmHg 47%
    16:00 +35°C° 0 mm 6 m/S 756 mmHg 54%
    17:00 +34°C° 0 mm 6 m/S 756 mmHg 61%
    18:00 +32°C° 0 mm 6 m/S 756 mmHg 69%
    19:00 +30°C° 0 mm 6 m/S 756 mmHg 74%
    20:00 +29°C° 0 mm 6 m/S 757 mmHg 79%
    21:00 +28°C° 0 mm 6 m/S 757 mmHg 83%
    22:00 +28°C° 0 mm 5 m/S 758 mmHg 85%
    23:00 +28°C° 0 mm 5 m/S 758 mmHg 86%

    Morgen, 21 Januar, Montag

    Zeit Temperatur Niederschläge Wind Luftdruck Luftfeuchtigkeit
    00:00 +28°C° 0 mm 5 m/S 758 mmHg 88%
    01:00 +27°C° 0 mm 4 m/S 758 mmHg 89%
    02:00 +27°C° 0 mm 4 m/S 758 mmHg 91%
    03:00 +27°C° 0 mm 4 m/S 758 mmHg 92%
    04:00 +26°C° 0 mm 3 m/S 758 mmHg 93%
    05:00 +26°C° 0 mm 3 m/S 758 mmHg 93%
    06:00 +26°C° 0 mm 3 m/S 758 mmHg 94%
    07:00 +27°C° 0 mm 4 m/S 759 mmHg 86%
    08:00 +29°C° 0 mm 4 m/S 759 mmHg 79%
    09:00 +30°C° 0 mm 5 m/S 760 mmHg 72%
    10:00 +33°C° 0 mm 5 m/S 760 mmHg 64%
    11:00 +34°C° 0 mm 5 m/S 759 mmHg 56%
    12:00 +36°C° 0 mm 5 m/S 759 mmHg 49%
    13:00 +36°C° 0 mm 5 m/S 758 mmHg 48%
    14:00 +38°C° 0 mm 6 m/S 757 mmHg 47%
    15:00 +38°C° 0 mm 6 m/S 756 mmHg 46%
    16:00 +35°C° 0 mm 6 m/S 756 mmHg 55%
    17:00 +33°C° 0 mm 6 m/S 756 mmHg 63%
    18:00 +32°C° 0 mm 7 m/S 756 mmHg 72%
    19:00 +30°C° 0 mm 6 m/S 756 mmHg 76%
    20:00 +29°C° 0 mm 6 m/S 757 mmHg 79%
    21:00 +29°C° 0 mm 6 m/S 758 mmHg 83%
    22:00 +28°C° 0 mm 5 m/S 758 mmHg 85%
    23:00 +28°C° 0 mm 5 m/S 758 mmHg 87%

    übermorgen, 22 Januar, Dienstag

    Zeit Temperatur Niederschläge Wind Luftdruck Luftfeuchtigkeit
    00:00 +28°C° 0 mm 4 m/S 759 mmHg 89%
    01:00 +27°C° 0 mm 4 m/S 758 mmHg 90%
    02:00 +27°C° 0 mm 4 m/S 758 mmHg 91%
    03:00 +27°C° 0 mm 4 m/S 757 mmHg 92%
    04:00 +27°C° 0 mm 4 m/S 758 mmHg 90%
    05:00 +27°C° 0 mm 3 m/S 758 mmHg 89%
    06:00 +27°C° 0 mm 3 m/S 758 mmHg 88%
    07:00 +28°C° 0 mm 4 m/S 759 mmHg 83%
    08:00 +29°C° 0 mm 4 m/S 759 mmHg 79%
    09:00 +30°C° 0 mm 4 m/S 760 mmHg 75%
    10:00 +32°C° 0 mm 5 m/S 759 mmHg 69%
    11:00 +33°C° 0 mm 5 m/S 759 mmHg 63%
    12:00 +35°C° 0 mm 5 m/S 759 mmHg 58%
    13:00 +35°C° 0 mm 6 m/S 758 mmHg 55%
    14:00 +36°C° 0 mm 6 m/S 757 mmHg 53%
    15:00 +36°C° 0 mm 6 m/S 756 mmHg 50%
    16:00 +35°C° 0 mm 7 m/S 756 mmHg 57%
    17:00 +33°C° 0 mm 7 m/S 755 mmHg 64%
    18:00 +32°C° 0 mm 7 m/S 755 mmHg 71%
    19:00 +30°C° 0 mm 7 m/S 756 mmHg 75%
    20:00 +29°C° 0 mm 6 m/S 757 mmHg 79%
    21:00 +29°C° 0 mm 6 m/S 758 mmHg 83%
    22:00 +29°C° 0 mm 6 m/S 758 mmHg 84%
    23:00 +28°C° 0 mm 6 m/S 758 mmHg 85%

    23 Januar, Mittwoch

    Zeit Temperatur Niederschläge Wind Luftdruck Luftfeuchtigkeit
    00:00 +28°C° 0 mm 6 m/S 758 mmHg 86%
    01:00 +28°C° 0 mm 5 m/S 757 mmHg 87%
    02:00 +28°C° 0 mm 5 m/S 757 mmHg 88%
    03:00 +27°C° 0 mm 4 m/S 756 mmHg 89%
    04:00 +27°C° 0 mm 4 m/S 757 mmHg 89%
    05:00 +28°C° 0 mm 4 m/S 757 mmHg 88%
    06:00 +28°C° 0 mm 3 m/S 757 mmHg 87%
    07:00 +28°C° 0 mm 4 m/S 758 mmHg 84%
    08:00 +29°C° 0 mm 4 m/S 759 mmHg 80%
    09:00 +29°C° 0 mm 5 m/S 759 mmHg 77%
    10:00 +30°C° 0 mm 5 m/S 759 mmHg 72%
    11:00 +32°C° 0 mm 5 m/S 759 mmHg 68%
    12:00 +33°C° 0 mm 5 m/S 758 mmHg 64%
    13:00 +34°C° 0 mm 5 m/S 758 mmHg 60%
    14:00 +34°C° 0 mm 6 m/S 757 mmHg 57%
    15:00 +35°C° 0 mm 6 m/S 756 mmHg 53%
    16:00 +34°C° 0 mm 6 m/S 756 mmHg 58%
    17:00 +33°C° 0 mm 6 m/S 756 mmHg 62%
    18:00 +32°C° 0 mm 6 m/S 756 mmHg 66%
    19:00 +30°C° 0 mm 6 m/S 757 mmHg 72%
    20:00 +29°C° 0 mm 6 m/S 757 mmHg 78%
    21:00 +28°C° 0 mm 6 m/S 758 mmHg 84%
    22:00 +28°C° 0 mm 5 m/S 758 mmHg 85%
    23:00 +28°C° 0 mm 5 m/S 758 mmHg 86%

    24 Januar, Donnerstag

    Zeit Temperatur Niederschläge Wind Luftdruck Luftfeuchtigkeit
    00:00 +27°C° 0 mm 4 m/S 758 mmHg 87%
    01:00 +27°C° 0 mm 4 m/S 758 mmHg 88%
    02:00 +27°C° 0 mm 4 m/S 758 mmHg 89%
    03:00 +27°C° 0 mm 3 m/S 757 mmHg 90%
    04:00 +26°C° 0 mm 3 m/S 758 mmHg 91%
    05:00 +26°C° 0 mm 3 m/S 758 mmHg 92%
    06:00 +26°C° 0 mm 3 m/S 758 mmHg 92%
    07:00 +27°C° 0 mm 4 m/S 759 mmHg 87%
    08:00 +28°C° 0 mm 4 m/S 760 mmHg 81%
    09:00 +30°C° 0 mm 4 m/S 760 mmHg 76%
    10:00 +32°C° 0 mm 4 m/S 760 mmHg 70%
    11:00 +33°C° 0 mm 5 m/S 759 mmHg 64%
    12:00 +34°C° 0 mm 5 m/S 759 mmHg 58%
    13:00 +35°C° 0 mm 5 m/S 758 mmHg 55%
    14:00 +35°C° 0 mm 5 m/S 757 mmHg 53%
    15:00 +36°C° 0 mm 6 m/S 756 mmHg 50%
    16:00 +35°C° 0 mm 6 m/S 756 mmHg 56%
    17:00 +33°C° 0 mm 6 m/S 756 mmHg 61%
    18:00 +32°C° 0 mm 7 m/S 757 mmHg 67%
    19:00 +30°C° 0 mm 6 m/S 757 mmHg 73%
    20:00 +29°C° 0 mm 6 m/S 758 mmHg 79%
    21:00 +28°C° 0 mm 6 m/S 758 mmHg 85%
    22:00 +28°C° 0 mm 6 m/S 759 mmHg 86%
    23:00 +28°C° 0 mm 5 m/S 759 mmHg 87%

    25 Januar, Freitag

    Zeit Temperatur Niederschläge Wind Luftdruck Luftfeuchtigkeit
    00:00 +27°C° 0 mm 5 m/S 759 mmHg 88%
    01:00 +27°C° 0 mm 4 m/S 759 mmHg 90%
    02:00 +27°C° 0 mm 4 m/S 758 mmHg 91%
    03:00 +26°C° 0 mm 3 m/S 758 mmHg 93%
    04:00 +26°C° 0 mm 3 m/S 759 mmHg 93%
    05:00 +26°C° 0 mm 3 m/S 759 mmHg 93%
    06:00 +26°C° 0 mm 3 m/S 759 mmHg 93%
    07:00 +28°C° 0 mm 3 m/S 760 mmHg 86%
    08:00 +29°C° 0 mm 4 m/S 760 mmHg 78%
    09:00 +30°C° 0 mm 4 m/S 761 mmHg 71%
    10:00 +33°C° 0 mm 4 m/S 760 mmHg 64%
    11:00 +35°C° 0 mm 4 m/S 760 mmHg 57%
    12:00 +36°C° 0 mm 4 m/S 759 mmHg 49%
    13:00 +36°C° 0 mm 5 m/S 759 mmHg 49%
    14:00 +38°C° 0 mm 6 m/S 758 mmHg 49%
    15:00 +38°C° 0 mm 6 m/S 757 mmHg 49%
    16:00 +35°C° 0 mm 6 m/S 757 mmHg 55%
    17:00 +34°C° 0 mm 6 m/S 757 mmHg 61%
    18:00 +33°C° 0 mm 6 m/S 757 mmHg 67%
    19:00 +30°C° 0 mm 6 m/S 757 mmHg 73%
    20:00 +29°C° 0 mm 5 m/S 758 mmHg 79%
    21:00 +28°C° 0 mm 5 m/S 758 mmHg 84%
    22:00 +28°C° 0 mm 5 m/S 759 mmHg 86%
    23:00 +28°C° 0 mm 5 m/S 759 mmHg 87%
    Mehr zeigen